[[{"header":{"parameterUnit":"m.s-1","parameterCategory":1,"la1":30.2991,"la2":30.254,"lo1":-89.0895,"lo2":-89.0444,"dy":0.0017,"dx":0.0017,"nx":28,"ny":28,"refTime":"2024-07-11T09:00:00:Z","depth":0,"parameterNumber":2,"parameterNumberName":"U-component_of_WINDS"},"data":[0,0,0,0,0,0,0,0,0,0,0,0,0,0,0,0,0,0,0,0,0,0,0,0,0,0,0,0,0,0,0,0,0,0,0,0,0,0,0,0,0,0,0,0,0,0,0,0,0,0,0,0,0,0,0,0,0,0,2.3606,2.3607,0,2.3707,2.3708,2.3709,2.3703,2.3701,2.37,2.3698,2.3801,2.3805,2.3809,0,0,0,0,0,0,0,0,0,0,0,0,0,2.3407,2.3411,2.3606,2.3607,2.3609,2.3707,2.3708,2.371,2.3703,2.3701,2.3699,2.3698,2.38,2.3804,2.3809,0,0,0,0,0,0,0,0,0,0,0,0,0,2.3499,2.3412,2.3606,2.3617,2.3619,2.3707,2.3708,2.371,2.3703,2.3701,2.3699,2.3697,2.3798,2.3804,2.381,2.3893,0,0,2.3829,2.3832,0,0,0,0,0,0,0,0,2.3494,2.3507,2.3614,2.3617,2.3619,2.369,2.3676,2.3771,2.3704,2.3671,2.3698,2.3696,2.3766,2.3774,2.3798,2.3897,2.3902,2.3829,2.3833,2.3836,2.3838,0,0,0,0,0,0,0,2.3488,2.3502,2.3646,2.3616,2.3619,2.3617,2.3628,2.3694,2.373,2.3674,2.3674,2.3686,2.3767,2.3792,2.3801,2.3903,2.3829,2.3835,2.3839,2.3841,2.4074,2.4076,0,0,0,0,0,0,2.3479,2.3497,2.3643,2.3649,2.355,2.3622,2.3634,2.3669,2.3729,2.3736,2.3688,2.3685,2.3783,2.3793,2.3804,2.3903,2.3836,2.3842,2.3845,2.4071,2.4074,2.4077,0,0,0,0,0,0,2.3475,2.3492,2.3639,2.3573,2.3592,2.3628,2.3668,2.3673,2.3698,2.3739,2.3746,2.3707,2.3782,2.3795,2.387,2.3906,2.3844,2.385,2.4069,2.4072,2.4076,2.4101,0,0,0,0,0,0,2.3469,2.3491,2.3522,2.3574,2.3595,2.3703,2.367,2.3676,2.3709,2.3707,2.3759,2.3766,2.3781,2.3861,2.3876,2.3914,2.3855,2.4065,2.407,2.4075,2.4097,2.4106,2.4113,0,0,0,0,0,2.3462,2.3525,2.3524,2.3541,2.3635,2.3705,2.3717,2.3733,2.3712,2.3744,2.377,2.3764,2.3901,2.3869,2.3886,2.3925,2.4063,2.4069,2.4074,2.4094,2.4104,2.4112,0,0,0,0,0,0,2.3476,2.3532,2.3531,2.3613,2.3655,2.3704,2.3744,2.3744,2.3792,2.3787,2.3806,2.3818,2.3892,2.3917,2.3881,2.4008,2.3979,2.3988,2.3988,2.3998,2.4005,2.3996,2.386,0,0,0,0,0,2.3489,2.3541,2.3588,2.3656,2.3677,2.3707,2.3738,2.3747,2.3791,2.3808,2.384,2.3882,2.3934,2.3968,2.4019,2.4103,2.4113,2.4138,2.4146,2.4152,2.4158,2.4203,2.4214,2.4096,2.4096,2.4095,0,0,2.3516,2.3553,2.3585,2.366,2.3693,2.3745,2.3722,2.3779,2.3818,2.3817,2.3888,2.3914,2.3962,2.4041,2.4078,2.4064,2.4194,2.4159,2.4164,2.4167,2.421,2.4221,2.4231,2.4099,2.4099,2.4098,0,0,2.359,2.3625,2.3684,2.3718,2.3769,2.3789,2.3804,2.3854,2.3871,2.3944,2.3943,2.3991,2.4081,2.4115,2.4144,2.4234,2.4229,2.425,2.4288,2.4331,2.434,2.4348,2.4378,2.4388,2.4257,2.4257,2.4257,0,2.3616,2.3696,2.3715,2.3773,2.3805,2.3807,2.3867,2.3899,2.3964,2.3986,2.3971,2.4084,2.4117,2.4203,2.4224,2.4249,2.4265,2.4242,2.4337,2.4346,2.4354,2.4382,2.4393,2.4259,2.4259,2.4259,2.4259,0,2.3725,2.3781,2.3823,2.3885,2.3923,2.3982,2.4008,2.4045,2.4051,2.4073,2.4147,2.4187,2.4245,2.4267,2.4274,2.4355,2.4344,2.4334,2.4304,2.4367,2.4393,2.4405,2.4262,2.4261,2.4261,2.426,0,0,2.3807,2.3881,2.3895,2.3923,2.3981,2.4024,2.4083,2.414,2.417,2.4216,2.4264,2.4341,2.4331,2.4364,2.4376,2.4414,2.448,2.4398,2.44,2.4409,2.4568,2.4574,2.4586,2.4479,2.4482,2.4483,2.4563,0,2.3885,2.3989,2.4008,2.4099,2.415,2.4154,2.4205,2.4246,2.4269,2.4315,2.4341,2.4394,2.4378,2.4398,2.4437,2.4464,2.4511,2.4459,2.4523,2.4525,2.4506,2.46,2.4606,2.4679,2.4574,2.4576,2.4577,0,2.3989,2.4037,2.4132,2.4183,2.4205,2.425,2.4304,2.4349,2.4396,2.441,2.4447,2.4455,2.4516,2.4487,2.457,2.4534,2.4562,2.458,2.4583,2.4586,2.4552,2.4603,2.4704,2.4713,2.4595,2.4593,2.4592,0,2.4035,2.4125,2.4193,2.4217,2.4279,2.431,2.4337,2.4381,2.4415,2.4462,2.4484,2.4538,2.4567,2.4609,2.4631,2.4608,2.4712,2.4685,2.4724,2.4723,2.4742,2.474,2.4845,2.4766,2.4766,2.4766,2.4766,0,2.4118,2.4175,2.4214,2.4256,2.4321,2.4343,2.4406,2.4433,2.4473,2.4519,2.4528,2.4571,2.4599,2.4646,2.4664,2.4729,2.4744,2.4755,2.4759,2.4752,2.475,2.4768,2.4762,2.4769,2.4768,2.4768,2.4767,0,2.4179,2.4208,2.4282,2.4335,2.4349,2.4394,2.4439,2.4479,2.4504,2.4562,2.4577,2.4614,2.4671,2.4698,2.4768,2.478,2.4853,2.4855,2.4837,2.4837,2.4873,2.4868,2.499,2.5006,2.492,2.4921,2.4922,0,2.4228,2.4272,2.433,2.4362,2.4389,2.4441,2.4475,2.45,2.4535,2.4592,2.4625,2.4682,2.4728,2.4818,2.4851,2.4905,2.4906,2.4945,2.4914,2.4906,2.4903,2.4898,2.4902,2.4949,2.495,2.4951,2.4951,0,2.431,2.4323,2.4371,2.4426,2.4466,2.451,2.4553,2.4579,2.4611,2.465,2.4708,2.4744,2.4816,2.4872,2.4928,2.4955,2.4958,2.4962,2.4973,2.4965,2.4951,2.4956,2.4848,2.4958,2.4957,2.4957,2.4956,2.4956,2.4364,2.4403,2.445,2.4504,2.454,2.458,2.462,2.465,2.4699,2.4759,2.4771,2.4832,2.4878,2.4954,2.4984,2.5031,2.5022,2.5039,2.5043,2.5046,2.5046,2.4947,2.5042,2.5042,2.5042,2.5042,2.5042,0,2.4444,2.4475,2.4525,2.4585,2.4628,2.463,2.4678,2.4713,2.4766,2.4809,2.4855,2.4921,2.4976,2.5014,2.507,2.5101,2.5103,2.5114,2.511,2.5116,2.5052,2.5036,2.5111,2.5111,2.5111,2.5111,2.5111,2.5111,2.4491,2.4556,2.4575,2.4658,2.4689,2.4749,2.4776,2.4813,2.4847,2.4921,2.4966,2.4991,2.5032,2.5091,2.5141,2.5151,2.517,2.518,2.5189,2.5128,2.5121,2.5114,2.5098,2.5185,2.5185,2.5249,2.5249,2.525]},{"header":{"parameterUnit":"m.s-1","parameterCategory":1,"la1":30.2991,"la2":30.254,"lo1":-89.0895,"lo2":-89.0444,"dy":0.0017,"dx":0.0017,"nx":28,"ny":28,"refTime":"2024-07-11T09:00:00:Z","depth":0,"parameterNumber":3,"parameterNumberName":"V-component_of_WINDS"},"data":[0,0,0,0,0,0,0,0,0,0,0,0,0,0,0,0,0,0,0,0,0,0,0,0,0,0,0,0,0,0,0,0,0,0,0,0,0,0,0,0,0,0,0,0,0,0,0,0,0,0,0,0,0,0,0,0,0,0,3.499,3.4991,0,3.5029,3.5029,3.503,3.4973,3.4971,3.4969,3.4967,3.5002,3.5004,3.5007,0,0,0,0,0,0,0,0,0,0,0,0,0,3.4862,3.4864,3.499,3.4991,3.4991,3.5029,3.5029,3.503,3.4973,3.4971,3.4969,3.4966,3.5001,3.5004,3.5007,0,0,0,0,0,0,0,0,0,0,0,0,0,3.4911,3.4865,3.499,3.4968,3.4966,3.5029,3.5029,3.503,3.4974,3.4971,3.4968,3.4965,3.5,3.5004,3.5008,3.5092,0,0,3.502,3.5022,0,0,0,0,0,0,0,0,3.4908,3.4915,3.497,3.4969,3.4968,3.4993,3.4996,3.5051,3.4975,3.4971,3.4967,3.4964,3.5001,3.5005,3.5018,3.5094,3.5095,3.5021,3.5023,3.5025,3.5026,0,0,0,0,0,0,0,3.4905,3.4913,3.5005,3.4971,3.497,3.4954,3.4957,3.5006,3.5002,3.4971,3.4967,3.4973,3.4999,3.5014,3.5019,3.5096,3.502,3.5024,3.5027,3.5028,3.5241,3.5244,0,0,0,0,0,0,3.4905,3.4911,3.5004,3.5006,3.493,3.4959,3.4963,3.4988,3.5001,3.5,3.4975,3.497,3.5009,3.5014,3.502,3.5118,3.5025,3.5029,3.5031,3.5238,3.5242,3.5245,0,0,0,0,0,0,3.4902,3.4914,3.5002,3.4958,3.4968,3.4964,3.4993,3.499,3.5005,3.5004,3.5003,3.4992,3.5007,3.5014,3.5075,3.5119,3.5031,3.5034,3.5234,3.5239,3.5243,3.5317,0,0,0,0,0,0,3.4899,3.4913,3.4946,3.4959,3.497,3.5059,3.4996,3.4993,3.5013,3.5007,3.5019,3.5019,3.5005,3.5069,3.5079,3.5123,3.5037,3.523,3.5236,3.5242,3.5311,3.5324,3.5335,0,0,0,0,0,3.4894,3.4965,3.4948,3.496,3.5013,3.5061,3.5068,3.5052,3.5017,3.5049,3.5049,3.5018,3.5113,3.5075,3.5086,3.5132,3.5227,3.5235,3.5241,3.5305,3.5321,3.5335,0,0,0,0,0,0,3.4955,3.4966,3.4948,3.5025,3.5043,3.5052,3.5092,3.507,3.5097,3.5089,3.5067,3.507,3.5135,3.514,3.5098,3.5214,3.5164,3.5173,3.5208,3.5224,3.5236,3.5232,3.5041,0,0,0,0,0,3.4978,3.5019,3.5025,3.5092,3.5103,3.5096,3.5117,3.5104,3.512,3.5127,3.5131,3.5147,3.518,3.5202,3.5233,3.5312,3.5312,3.5348,3.536,3.537,3.5378,3.5419,3.5434,3.5269,3.5269,3.5268,0,0,3.5025,3.5036,3.5063,3.5105,3.5117,3.5158,3.5103,3.5148,3.5178,3.5133,3.5191,3.5195,3.5211,3.5281,3.5312,3.5287,3.5425,3.538,3.5388,3.539,3.5428,3.5443,3.5457,3.5274,3.5273,3.5272,0,0,3.5131,3.5144,3.5201,3.5215,3.5235,3.523,3.5244,3.5257,3.5258,3.5316,3.5283,3.5317,3.5375,3.5388,3.5402,3.5513,3.5485,3.5523,3.5586,3.5626,3.5639,3.565,3.5688,3.5702,3.5532,3.5532,3.5532,0,3.5185,3.5248,3.5232,3.528,3.5299,3.5263,3.5319,3.5333,3.5361,3.5374,3.5346,3.5418,3.5426,3.5498,3.5525,3.5539,3.5552,3.5521,3.5638,3.565,3.566,3.5696,3.571,3.5536,3.5536,3.5535,3.5535,0,3.5313,3.5357,3.54,3.543,3.5454,3.5506,3.5496,3.5522,3.5507,3.5504,3.5563,3.5572,3.5604,3.562,3.5605,3.5689,3.5673,3.5642,3.5591,3.5681,3.5714,3.5727,3.5543,3.5541,3.554,3.5539,0,0,3.5457,3.5479,3.5495,3.5508,3.5527,3.556,3.5609,3.5642,3.5663,3.5684,3.5723,3.5774,3.5746,3.5762,3.5748,3.5783,3.5868,3.5747,3.5747,3.5768,3.596,3.5981,3.5998,3.5851,3.5853,3.5855,3.5958,0,3.5561,3.5649,3.5637,3.572,3.5759,3.5725,3.5768,3.5784,3.5783,3.5814,3.5813,3.5848,3.5809,3.5818,3.5852,3.5851,3.5906,3.5843,3.5885,3.5887,3.588,3.6015,3.6039,3.6135,3.5971,3.5973,3.5975,0,3.5694,3.5722,3.581,3.5823,3.5839,3.5878,3.5906,3.5937,3.5953,3.595,3.5969,3.5949,3.5996,3.5946,3.601,3.5968,3.5984,3.5986,3.5989,3.5991,3.5935,3.6019,3.6165,3.6179,3.5995,3.5994,3.5992,0,3.5788,3.5847,3.5907,3.5919,3.5937,3.5965,3.5973,3.5987,3.6007,3.6031,3.6043,3.6073,3.6088,3.611,3.6097,3.6062,3.6163,3.6112,3.616,3.6161,3.6181,3.618,3.6331,3.6195,3.6195,3.6195,3.6194,0,3.5905,3.5959,3.595,3.5986,3.6046,3.6031,3.6089,3.6093,3.6106,3.6141,3.6114,3.6147,3.6129,3.6161,3.6151,3.6205,3.6212,3.621,3.6206,3.6211,3.6211,3.622,3.6213,3.6198,3.6198,3.6197,3.6196,0,3.6019,3.6015,3.6078,3.609,3.6094,3.6137,3.6146,3.618,3.6177,3.6222,3.6232,3.6228,3.6263,3.6254,3.6292,3.6285,3.6353,3.6342,3.6348,3.6344,3.6392,3.6387,3.6553,3.6573,3.6426,3.6427,3.6428,0,3.6093,3.6135,3.6152,3.6174,3.6185,3.6222,3.6242,3.6229,3.6251,3.6273,3.6303,3.6337,3.6363,3.6421,3.642,3.6449,3.6438,3.6494,3.6441,3.6445,3.6436,3.6434,3.6437,3.6503,3.6505,3.6506,3.6507,0,3.6224,3.622,3.6252,3.6284,3.631,3.6333,3.6354,3.6374,3.6361,3.6387,3.6425,3.6445,3.6485,3.6518,3.6544,3.655,3.6527,3.6524,3.6536,3.6541,3.6543,3.6541,3.6374,3.652,3.6519,3.6518,3.6517,3.6517,3.632,3.6354,3.6372,3.6408,3.6423,3.6443,3.6475,3.6477,3.6508,3.654,3.653,3.6572,3.6586,3.662,3.663,3.6661,3.664,3.6658,3.6662,3.6666,3.6672,3.6539,3.6666,3.6666,3.6665,3.6665,3.6665,0,3.6448,3.6458,3.6491,3.6522,3.655,3.6528,3.6549,3.6573,3.6611,3.6628,3.6655,3.6697,3.6729,3.6731,3.676,3.6785,3.6775,3.6793,3.679,3.6792,3.669,3.6676,3.6801,3.6801,3.6801,3.6801,3.6801,3.6801,3.6518,3.6575,3.6573,3.6637,3.6646,3.6688,3.6702,3.672,3.6733,3.6782,3.6809,3.6811,3.6821,3.6851,3.6879,3.6879,3.689,3.6913,3.6908,3.6813,3.6799,3.6786,3.6772,3.6916,3.6916,3.7007,3.7007,3.7008]}]]